Regional Weather Roundup
Issued by NWS Jackson, KY

Home | Current Version | Previous Version | Graphics & Text | Print | Product List | Glossary On
Versions: 1 2 3 4 5 6 7 8 9 10 11 12 13 14 15 16 17 18 19 20 21 22 23 24 25 26 27 28 29 30 31 32 33 34 35 36 37 38 39 40 41 42 43 44 45 46 47 48 49 50
644
ASUS43 KJKL 301310
RWRJKL

EAST KENTUCKY HOURLY WEATHER ROUNDUP
NATIONAL WEATHER SERVICE JACKSON KY
900 AM EDT TUE AUG 30 2016

NOTE: "FAIR" INDICATES FEW OR NO CLOUDS BELOW 12,000 FEET WITH
NO SIGNIFICANT WEATHER AND/OR OBSTRUCTIONS TO VISIBILITY.

* THESE REPORTS ARE NOT UNDER NWS QUALITY CONTROL AND MAY NOT
  REPORT WEATHER SUCH AS PRECIPITATION AND FOG.

KYZ079-080-083-085-087-088-110-112-115-119-120-301400
...EASTERN KENTUCKY...

CITY           SKY/WX    TMP DP  RH WIND       PRES   REMARKS
JACKSON        SUNNY     73  70  90 CALM      30.17S
LONDON         SUNNY     75  68  78 CALM      30.16R
SOMERSET*      SUNNY     72  70  94 CALM      30.16R
MONTICELLO*    SUNNY    N/A N/A N/A MISG      30.16R
WILLIAMSBURG*  CLOUDY    68  68 100 CALM      30.16R VSB<1/4
MIDDLESBORO*   FOG       68  68 100 CALM      30.17S VSB 1/4
HARLAN APT*    CLOUDY    70  66  88 CALM      30.19R
PIKE CO APT*     N/A     71  70  96 CALM      30.18S
BIG SANDY APT* FOG       70  70 100 CALM      30.18R VSB<1/4
MOREHEAD APT*  SUNNY     75  66  73 E3        30.18S
$$

KYZ035-036-041-042-044-050-067-078-099-301400
...CENTRAL KENTUCKY...

CITY           SKY/WX    TMP DP  RH WIND       PRES   REMARKS
MT STERLING*   SUNNY     75  70  83 E3        30.18S
FLEMING/MASON* SUNNY     72  68  88 CALM      30.18S
DANVILLE*      SUNNY     72  70  94 E3        30.17R
LEXINGTON      SUNNY     77  68  73 E6        30.16R
FRANKFORT      SUNNY     76  69  79 E6        30.15S
LOUISVILLE     MOSUNNY   79  70  74 CALM      30.14R
LEBANON*         N/A     73  72  94 NE3       30.16R
GLASGOW*       SUNNY     74  74  98 E6        30.13S
BOWLING GREEN  SUNNY     77  71  82 CALM      30.13R
$$

KYZ091>093-OHZ055-061-077-WVZ005-015-034-035-042-301400
...SOUTHERN OHIO/WEST VIRGINIA...

CITY           SKY/WX    TMP DP  RH WIND       PRES   REMARKS
COVINGTON      MOSUNNY   75  69  81 NE5       30.18R
COLUMBUS       SUNNY     71  61  70 CALM      30.18R
DAYTON         MOSUNNY   72  63  73 CALM      30.20S
WILMINGTON     SUNNY     69  64  84 E3        30.19R
HUNTINGTON     SUNNY     74  67  78 NE5       30.16R
CHARLESTON     MOSUNNY   69  68  96 NE3       30.16S FOG
PINEVILLE*     CLOUDY    69  66  89 MISG      30.25S FOG
BECKLEY        MOSUNNY   69  65  86 SE5       30.24R
BLUEFIELD      MOSUNNY   68  65  90 CALM      30.26R
LOGAN CO APT*  FOG       72  72 100 CALM      30.18S VSB<1/4
$$

VAZ002-007-008-TNZ017-027-036-066-071-301400
...SOUTHWEST VIRGINIA/EAST TENNESSEE...

CITY           SKY/WX    TMP DP  RH WIND       PRES   REMARKS
WISE*          SUNNY     73  64  73 CALM      30.25S
JONESVILLE*      N/A     72  68  88 CALM      30.20R
ABINGDON*      SUNNY     74  67  78 E8        30.22R
BRISTOL        SUNNY     72  66  81 CALM      30.19R
MORRISTOWN*    SUNNY     77  68  73 E6        30.16R
SEVIERVILLE*   SUNNY     70  64  83 CALM      30.15R
CROSSVILLE     SUNNY     74  68  81 CALM      30.19R
NASHVILLE      SUNNY     78  72  81 CALM      30.12R
$$

...KEY TO REMARKS...
VSB - VISIBILITY IN MILES
WCI - WIND CHILL INDEX
HX  - HEAT INDEX

$$




USA.gov is the U.S. government's official web portal to all federal, state and local government web resources and services.